Location: Unspecified
(0.0000°N, 0.0000°E)
Time: 16:46:35
(UTC+00:00)

deb r/b Ablestar - Pass Details

Date: 18 April 2026
Orbit: 780 x 880 km, 66.7° (Epoch: 13 May)

Event Time Altitude Azimuth Distance (km) Brightness Sun altitude
Exits shadow 03:21:26 18° 38° (NE) 1,839 ? -38.7°
Drops below altitude 10° 03:22:47 10° 34° (NNE) 2,327 ? -38.3°
Sets 03:25:13 0° 29° (NNE) 3,249 ? -37.8°
